Home > Weather > Arviat > Past weeks

Flag for Canada Past Weather in Arviat, Nunavut, Canada — Yesterday and Last 2 Weeks

Now
52 °F

Passing clouds.


Feels Like: 48 °F
Forecast: 49 / 62 °F
Wind: 10 mph from North

Location: Arviat Airport

Current Time: Jul 28, 2016 at 5:32:34 AM

Latest Report: Jul 28, 2016 at 5:00 AM


Visibility: 9 mi

Pressure: 30.04 "Hg

Humidity: 94%

Dew Point: 50 °F

Location of ArviatLocation

Past Weather in Arviat — Graph

°F

Arviat Temperature Yesterday

Maximum temperature yesterday: 55 °F (at 8:00 AM)
Minimum temperature yesterday: 46 °F (at 3:00 AM)
Average temperature yesterday: 52 °F

High & Low Weather Summary for the Past Weeks

 TemperatureHumidityPressure
High77 °F (Jul 15, 4:00 PM)100% (Jul 13, 4:00 AM)30.13 "Hg (Jul 13, 4:00 AM)
Low41 °F (Jul 25, 5:56 AM)39% (Jul 15, 4:00 PM)29.32 "Hg (Jul 16, 2:00 PM)
Average52 °F86%29.73 "Hg
* Reported Jul 13 4:00 AM — Jul 28 4:00 AM, Arviat, Weather by CustomWeather, © 2016

Note: Actual official high and low records may vary slightly from our data, if they occured in-between our weather recording intervals... More about our weather records

Advertising

Arviat Weather History for the Previous 24 Hours

Scroll right to see more
 ConditionsComfort  
Time TempWeatherWind HumidityBarometerVisibility
4:00 AM
Thu, Jul 28
52 °FClear.12 mph94%30.04 "Hg9 mi
3:00 AM48 °FPassing clouds.5 mph94%30.04 "Hg9 mi
2:00 AM50 °FPassing clouds.5 mph94%30.03 "Hg9 mi
1:00 AM48 °FPassing clouds.8 mph94%30.03 "Hg9 mi
12:00 AM52 °FPassing clouds.17 mph82%30.03 "Hg9 mi
11:00 PM
Wed, Jul 27
50 °FMostly cloudy.13 mph94%30.02 "Hg9 mi
10:00 PM50 °FOvercast.12 mph94%30.01 "Hg9 mi
9:55 PM50 °FOvercast.15 mph94%30.01 "Hg9 mi
9:00 PM52 °FLight rain. Overcast.12 mph88%30.01 "Hg9 mi
8:57 PM52 °FLight rain. Overcast.14 mph88%30.01 "Hg9 mi
8:00 PM52 °FOvercast.15 mph88%30.01 "Hg9 mi
7:00 PM52 °FOvercast.15 mph88%30.02 "Hg9 mi
6:00 PM54 °FOvercast.15 mph82%30.03 "Hg9 mi
5:00 PM54 °FBroken clouds.18 mph88%30.03 "Hg15 mi
4:00 PM55 °FPartly sunny.17 mph77%30.04 "Hg15 mi
3:00 PM55 °FPartly sunny.17 mph82%30.06 "Hg15 mi
2:00 PM55 °FPartly sunny.16 mph82%30.06 "Hg15 mi
1:00 PM55 °FPartly sunny.14 mph82%30.06 "Hg15 mi
12:00 PM55 °FPartly sunny.12 mph82%30.09 "Hg15 mi
11:00 AM55 °FScattered clouds.14 mph82%30.09 "Hg15 mi
10:00 AM55 °FScattered clouds.12 mph82%30.11 "Hg15 mi
9:00 AM55 °FScattered clouds.9 mph88%30.11 "Hg15 mi
8:00 AM55 °FScattered clouds.5 mph88%30.13 "Hg15 mi
7:00 AM50 °FSunny.5 mph100%30.13 "Hg15 mi
6:00 AM48 °FSunny.5 mph100%30.13 "Hg9 mi
5:00 AM48 °FClear.5 mph100%30.12 "Hg9 mi
Weather by CustomWeather, © 2016

See weather overviewHow to use our weather pages